[[{"header":{"parameterUnit":"m.s-1","parameterCategory":2,"la1":30.2991,"la2":30.254,"lo1":-89.0895,"lo2":-89.0444,"dy":0.0017,"dx":0.0017,"nx":28,"ny":28,"refTime":"2023-09-25T21:00:00:Z","depth":"0","parameterNumber":2,"parameterNumberName":"U-component_of_CURRENTS"},"data":[0,0,0,0,0,0,0,0,0,0,0,0,0,0,0,0,0,0,0,0,0,0,0,0,0,0,0,0,0,0,0,0,0,0,0,0,0,0,0,0,0,0,0,0,0,0,0,0,0,0,0,0,0,0,0,0,0,0,-0.2873,-0.2874,0,-0.2925,-0.2925,-0.2925,-0.2863,-0.2862,-0.286,-0.2859,-0.2774,-0.2773,-0.2772,0,0,0,0,0,0,0,0,0,0,0,0,0,-0.2662,-0.2665,-0.2872,-0.2874,-0.2876,-0.2925,-0.2925,-0.2925,-0.2863,-0.2862,-0.286,-0.2858,-0.2775,-0.2773,-0.2772,0,0,0,0,0,0,0,0,0,0,0,0,0,-0.2728,-0.2666,-0.2872,-0.2859,-0.2859,-0.2925,-0.2925,-0.2924,-0.2864,-0.2862,-0.286,-0.2858,-0.2775,-0.2773,-0.2772,-0.2803,0,0,-0.2767,-0.2767,0,0,0,0,0,0,0,0,-0.2724,-0.2734,-0.2859,-0.286,-0.286,-0.2895,-0.282,-0.2881,-0.2864,-0.2851,-0.2859,-0.2857,-0.281,-0.2806,-0.2807,-0.2799,-0.2795,-0.2767,-0.2766,-0.2766,-0.2765,0,0,0,0,0,0,0,-0.272,-0.2731,-0.2883,-0.2861,-0.2862,-0.2831,-0.2838,-0.2831,-0.283,-0.2852,-0.285,-0.2873,-0.2808,-0.2809,-0.2804,-0.2794,-0.2767,-0.2766,-0.2765,-0.2764,-0.2837,-0.284,0,0,0,0,0,0,-0.2741,-0.2728,-0.2881,-0.2885,-0.2798,-0.2838,-0.2844,-0.2877,-0.2833,-0.2829,-0.2875,-0.287,-0.2812,-0.2806,-0.2801,-0.2876,-0.2766,-0.2764,-0.2763,-0.2834,-0.2838,-0.2841,0,0,0,0,0,0,-0.2736,-0.2754,-0.2879,-0.2815,-0.283,-0.2845,-0.2881,-0.2879,-0.2883,-0.2855,-0.2845,-0.2882,-0.281,-0.2803,-0.2815,-0.287,-0.2764,-0.2762,-0.2831,-0.2835,-0.2839,-0.3,0,0,0,0,0,0,-0.273,-0.2752,-0.2775,-0.2817,-0.2835,-0.2925,-0.2884,-0.2882,-0.2906,-0.29,-0.2858,-0.2847,-0.2808,-0.2818,-0.2814,-0.2866,-0.2761,-0.2827,-0.2833,-0.2838,-0.2991,-0.3009,-0.3024,0,0,0,0,0,-0.2722,-0.2766,-0.2776,-0.2795,-0.2869,-0.2927,-0.2932,-0.2927,-0.2908,-0.2919,-0.2902,-0.2849,-0.2848,-0.2819,-0.2813,-0.2867,-0.2825,-0.2831,-0.2838,-0.2983,-0.3005,-0.3024,0,0,0,0,0,0,-0.2683,-0.2767,-0.2778,-0.2844,-0.2887,-0.2921,-0.2939,-0.2942,-0.2939,-0.2927,-0.2884,-0.2875,-0.2899,-0.2869,-0.2838,-0.2905,-0.2829,-0.2834,-0.2941,-0.2962,-0.2978,-0.2946,-0.276,0,0,0,0,0,-0.2693,-0.2748,-0.2813,-0.2866,-0.2891,-0.2917,-0.2939,-0.2943,-0.2956,-0.2952,-0.2925,-0.2911,-0.2925,-0.293,-0.2913,-0.2959,-0.291,-0.299,-0.3007,-0.3022,-0.2994,-0.3004,-0.3019,-0.2862,-0.2862,-0.2862,0,0,-0.2701,-0.2749,-0.2785,-0.2862,-0.2889,-0.292,-0.2921,-0.2966,-0.2989,-0.2945,-0.295,-0.2955,-0.2946,-0.299,-0.3,-0.2972,-0.3046,-0.303,-0.3043,-0.3005,-0.3013,-0.3028,-0.3041,-0.2866,-0.2865,-0.2865,0,0,-0.2704,-0.2781,-0.2801,-0.285,-0.2907,-0.2936,-0.2955,-0.2993,-0.3007,-0.3037,-0.3023,-0.3069,-0.3055,-0.3089,-0.3101,-0.3204,-0.3123,-0.3203,-0.3277,-0.3292,-0.3304,-0.3314,-0.3289,-0.3296,-0.3228,-0.3228,-0.3228,0,-0.2697,-0.2755,-0.2816,-0.2839,-0.2901,-0.2943,-0.2982,-0.3006,-0.3039,-0.3085,-0.3043,-0.3111,-0.3103,-0.3211,-0.3242,-0.3242,-0.3211,-0.3207,-0.3312,-0.3321,-0.3328,-0.3301,-0.3306,-0.3237,-0.3236,-0.3235,-0.3234,0,-0.2699,-0.2758,-0.2785,-0.2838,-0.2898,-0.2961,-0.3022,-0.3059,-0.3086,-0.3127,-0.3219,-0.3233,-0.3276,-0.3311,-0.3299,-0.339,-0.3338,-0.3322,-0.3258,-0.3354,-0.3319,-0.3321,-0.3249,-0.3246,-0.3243,-0.3241,0,0,-0.2658,-0.2767,-0.2773,-0.2827,-0.2929,-0.2982,-0.3046,-0.3151,-0.3195,-0.3247,-0.3319,-0.3403,-0.3426,-0.344,-0.347,-0.3496,-0.3541,-0.3432,-0.3429,-0.3401,-0.3537,-0.3244,-0.3218,-0.3542,-0.3543,-0.3544,-0.3497,0,-0.2645,-0.2707,-0.2772,-0.2861,-0.2926,-0.3026,-0.3087,-0.3185,-0.3243,-0.3302,-0.3406,-0.3451,-0.3477,-0.3499,-0.3549,-0.3526,-0.3549,-0.3551,-0.345,-0.3446,-0.317,-0.3212,-0.3029,-0.2947,-0.3498,-0.3499,-0.3499,0,-0.2614,-0.2685,-0.2768,-0.293,-0.2965,-0.3005,-0.3158,-0.3216,-0.3332,-0.3377,-0.3481,-0.351,-0.3609,-0.3567,-0.3622,-0.3618,-0.3577,-0.3556,-0.3554,-0.321,-0.3155,-0.2937,-0.2929,-0.2924,-0.3501,-0.3501,-0.3501,0,-0.2571,-0.2691,-0.2777,-0.2834,-0.2988,-0.3045,-0.3119,-0.324,-0.3285,-0.3402,-0.3396,-0.3562,-0.3541,-0.3601,-0.3541,-0.359,-0.351,-0.3584,-0.3297,-0.3276,-0.3055,-0.301,-0.301,-0.3582,-0.3582,-0.3583,-0.3583,0,-0.2566,-0.2628,-0.2756,-0.2809,-0.2893,-0.3024,-0.3096,-0.3175,-0.3265,-0.3271,-0.3411,-0.3375,-0.3525,-0.3492,-0.3528,-0.3363,-0.3507,-0.3275,-0.3234,-0.3104,-0.3065,-0.2991,-0.304,-0.3581,-0.3581,-0.3581,-0.3582,0,-0.2478,-0.2583,-0.2665,-0.2822,-0.2865,-0.2909,-0.302,-0.3047,-0.3143,-0.3127,-0.3144,-0.3212,-0.315,-0.3234,-0.3249,-0.3232,-0.3096,-0.3083,-0.2881,-0.2813,-0.2547,-0.261,-0.2471,-0.2416,-0.282,-0.2812,-0.2806,0,-0.2436,-0.2467,-0.2605,-0.2626,-0.268,-0.2766,-0.2799,-0.2953,-0.296,-0.2974,-0.2925,-0.287,-0.2769,-0.2686,-0.2655,-0.2637,-0.2738,-0.2446,-0.2505,-0.2456,-0.2505,-0.257,-0.2545,-0.2321,-0.2311,-0.2303,-0.2297,0,-0.2295,-0.2326,-0.2367,-0.2427,-0.2464,-0.2519,-0.2574,-0.257,-0.2687,-0.266,-0.2524,-0.244,-0.229,-0.214,-0.2073,-0.2078,-0.2354,-0.2268,-0.2316,-0.215,-0.213,-0.208,-0.2427,-0.2224,-0.2232,-0.2237,-0.2241,-0.2244,-0.2105,-0.2081,-0.2109,-0.2152,-0.2197,-0.2192,-0.2163,-0.2216,-0.2179,-0.2078,-0.2106,-0.1909,-0.1799,-0.1648,-0.163,-0.1538,-0.1726,-0.1589,-0.1687,-0.177,-0.1644,-0.1756,-0.1429,-0.1432,-0.1434,-0.1436,-0.1438,0,-0.1836,-0.1821,-0.1834,-0.185,-0.1809,-0.1936,-0.1937,-0.1872,-0.1745,-0.1685,-0.1554,-0.1345,-0.1196,-0.1194,-0.1101,-0.1045,-0.1134,-0.1085,-0.1247,-0.1268,-0.1443,-0.1343,-0.0859,-0.0859,-0.0859,-0.0859,-0.0859,-0.0859,-0.1669,-0.1564,-0.1594,-0.1441,-0.1465,-0.1356,-0.1319,-0.1262,-0.1203,-0.1003,-0.0885,-0.0802,-0.0875,-0.095,-0.0911,-0.0879,-0.0985,-0.0858,-0.1004,-0.1245,-0.1305,-0.1364,-0.1282,-0.0794,-0.0794,-0.0774,-0.0774,-0.0774]},{"header":{"parameterUnit":"m.s-1","parameterCategory":2,"la1":30.2991,"la2":30.254,"lo1":-89.0895,"lo2":-89.0444,"dy":0.0017,"dx":0.0017,"nx":28,"ny":28,"refTime":"2023-09-25T21:00:00:Z","depth":"0","parameterNumber":3,"parameterNumberName":"V-component_of_CURRENTS"},"data":[0,0,0,0,0,0,0,0,0,0,0,0,0,0,0,0,0,0,0,0,0,0,0,0,0,0,0,0,0,0,0,0,0,0,0,0,0,0,0,0,0,0,0,0,0,0,0,0,0,0,0,0,0,0,0,0,0,0,-0.0348,-0.0346,0,-0.0198,-0.0197,-0.0195,-0.0113,-0.0112,-0.0112,-0.0112,0.0038,0.0042,0.0046,0,0,0,0,0,0,0,0,0,0,0,0,0,-0.0497,-0.0496,-0.0348,-0.0346,-0.0344,-0.0199,-0.0197,-0.0195,-0.0113,-0.0112,-0.0112,-0.0112,0.0037,0.0041,0.0046,0,0,0,0,0,0,0,0,0,0,0,0,0,-0.0398,-0.0495,-0.0348,-0.0286,-0.0279,-0.0199,-0.0197,-0.0194,-0.0113,-0.0112,-0.0112,-0.0112,0.0035,0.0041,0.0047,0.0077,0,0,0.0064,0.0067,0,0,0,0,0,0,0,0,-0.0404,-0.0393,-0.0297,-0.029,-0.0282,-0.0174,-0.0194,-0.0103,-0.0113,-0.0175,-0.0112,-0.0112,-0.0033,-0.0022,0.0006,0.0084,0.009,0.0065,0.0068,0.0071,0.0072,0,0,0,0,0,0,0,-0.0411,-0.0399,-0.0288,-0.0295,-0.0286,-0.0244,-0.023,-0.0176,-0.0107,-0.017,-0.0164,-0.0148,-0.0029,0.0001,0.001,0.0093,0.0065,0.007,0.0073,0.0075,0.0226,0.0226,0,0,0,0,0,0,-0.0434,-0.0405,-0.0293,-0.0284,-0.0345,-0.0242,-0.0226,-0.0209,-0.0107,-0.0092,-0.0148,-0.0145,-0.0009,0.0004,0.0016,0.0062,0.0071,0.0076,0.0079,0.0225,0.0226,0.0226,0,0,0,0,0,0,-0.0438,-0.0426,-0.0299,-0.0342,-0.0323,-0.024,-0.0221,-0.0206,-0.0175,-0.0091,-0.0076,-0.0133,-0.0009,0.0008,0.0067,0.0068,0.0079,0.0084,0.0225,0.0225,0.0226,0.0152,0,0,0,0,0,0,-0.0443,-0.0428,-0.0427,-0.0343,-0.0321,-0.025,-0.022,-0.0203,-0.0167,-0.016,-0.0073,-0.0059,-0.0007,0.0058,0.0073,0.0077,0.0088,0.0224,0.0225,0.0226,0.0154,0.015,0.0147,0,0,0,0,0,-0.0449,-0.0441,-0.0428,-0.0414,-0.0321,-0.025,-0.0234,-0.0174,-0.0167,-0.0148,-0.0093,-0.0062,0.0075,0.0063,0.008,0.0086,0.0223,0.0225,0.0226,0.0155,0.0151,0.0147,0,0,0,0,0,0,-0.05,-0.043,-0.0413,-0.0384,-0.0325,-0.0236,-0.0215,-0.0181,-0.0123,-0.0123,-0.0052,-0.0033,0.0021,0.0064,0.0049,0.0134,0.0154,0.0158,0.0094,0.0091,0.0087,0.0056,0.0093,0,0,0,0,0,-0.0515,-0.0496,-0.0419,-0.0399,-0.0373,-0.0301,-0.0268,-0.0227,-0.0164,-0.0138,-0.0076,-0.0014,0.004,0.0072,0.0132,0.0176,0.02,0.0191,0.0188,0.0185,0.0172,0.0201,0.0198,0.023,0.023,0.023,0,0,-0.0535,-0.0491,-0.0483,-0.041,-0.0363,-0.0326,-0.028,-0.0231,-0.0205,-0.0132,-0.0079,-0.0021,0.005,0.0103,0.013,0.0138,0.0191,0.0186,0.0182,0.0171,0.0202,0.0199,0.0196,0.0231,0.0231,0.0231,0,0,-0.0553,-0.0521,-0.0509,-0.0465,-0.0397,-0.0349,-0.0341,-0.0254,-0.0219,-0.0161,-0.0107,-0.0055,0.004,0.0087,0.0121,0.0134,0.0173,0.0159,0.0115,0.0144,0.0141,0.0138,0.0168,0.0168,0.0155,0.0155,0.0155,0,-0.0582,-0.0557,-0.0494,-0.0467,-0.0445,-0.0367,-0.0354,-0.0298,-0.0204,-0.0183,-0.0154,-0.0035,0.0028,0.0075,0.0085,0.0124,0.0147,0.012,0.0136,0.0134,0.0133,0.0164,0.0165,0.0152,0.0152,0.0152,0.0153,0,-0.0579,-0.0571,-0.0559,-0.0509,-0.0471,-0.0447,-0.037,-0.0331,-0.0287,-0.0231,-0.0171,-0.0084,-0.002,0.0013,0.0056,0.0081,0.0102,0.0126,0.0136,0.0125,0.0159,0.0162,0.0147,0.0148,0.0149,0.015,0,0,-0.0621,-0.0575,-0.0572,-0.0581,-0.0501,-0.0475,-0.0432,-0.0376,-0.0364,-0.027,-0.0249,-0.015,-0.0107,-0.0066,-0.0005,0.0024,0.0044,0.0065,0.0068,0.0076,0.0105,0.0155,0.0164,0.0066,0.0066,0.0066,0.0133,0,-0.0648,-0.0644,-0.0597,-0.0606,-0.0608,-0.0539,-0.0511,-0.045,-0.0387,-0.0338,-0.0253,-0.0201,-0.0135,-0.0111,-0.007,0.0017,0.0048,0.0023,0.0131,0.0134,0.0165,0.0168,0.0195,0.0259,0.0136,0.0137,0.0137,0,-0.0656,-0.0666,-0.0684,-0.0689,-0.0681,-0.0664,-0.063,-0.0593,-0.0501,-0.0456,-0.0387,-0.0304,-0.0233,-0.0181,-0.0061,-0.008,0.0002,0.0067,0.0071,0.0142,0.019,0.0254,0.027,0.0376,0.0142,0.0141,0.0141,0,-0.0728,-0.0727,-0.076,-0.0755,-0.0731,-0.0732,-0.0712,-0.0633,-0.0614,-0.0531,-0.0506,-0.0399,-0.035,-0.0241,-0.0079,-0.0077,0.0053,0.0074,0.0195,0.02,0.0257,0.0266,0.0371,0.0147,0.0147,0.0147,0.0147,0,-0.0777,-0.0805,-0.0803,-0.0825,-0.0869,-0.0816,-0.0833,-0.079,-0.073,-0.0695,-0.0581,-0.0528,-0.0365,-0.0246,-0.0111,0.0057,0.0032,0.0184,0.0219,0.0235,0.0241,0.0364,0.04,0.0149,0.0149,0.0148,0.0148,0,-0.0836,-0.0835,-0.0885,-0.0897,-0.0903,-0.0931,-0.0919,-0.0917,-0.086,-0.0812,-0.0788,-0.0638,-0.0473,-0.0294,-0.0104,0.0013,0.024,0.0238,0.0249,0.0284,0.0485,0.0515,0.0632,0.0694,0.0364,0.0365,0.0367,0,-0.0863,-0.0892,-0.0944,-0.0977,-0.0985,-0.1017,-0.1024,-0.0986,-0.096,-0.0856,-0.0824,-0.067,-0.05,-0.0215,0.0009,0.0244,0.0323,0.0386,0.0397,0.0499,0.0558,0.0565,0.0609,0.0446,0.0448,0.0449,0.0451,0,-0.0908,-0.0922,-0.0958,-0.1034,-0.1067,-0.1104,-0.11,-0.1099,-0.1017,-0.0951,-0.0804,-0.0668,-0.039,-0.0092,0.0187,0.032,0.0455,0.0425,0.0529,0.0627,0.0643,0.0719,0.0397,0.0464,0.0463,0.0462,0.0461,0.0461,-0.0918,-0.0959,-0.0994,-0.1062,-0.1108,-0.1124,-0.1116,-0.1057,-0.0987,-0.0767,-0.0725,-0.0407,-0.0158,0.0257,0.039,0.0648,0.0602,0.0724,0.0751,0.0747,0.0812,0.0522,0.0631,0.0631,0.063,0.063,0.063,0,-0.0905,-0.094,-0.1009,-0.1067,-0.1101,-0.1126,-0.1104,-0.1028,-0.0871,-0.0604,-0.0397,0.0022,0.0318,0.0565,0.0856,0.0977,0.0985,0.1019,0.1033,0.1063,0.0814,0.0823,0.0982,0.0982,0.0982,0.0982,0.0981,0.0981,-0.0891,-0.0932,-0.0973,-0.1015,-0.1053,-0.1038,-0.1004,-0.0858,-0.0643,-0.0184,0.0197,0.044,0.0666,0.0991,0.1239,0.1252,0.1352,0.1318,0.1379,0.1208,0.1182,0.1157,0.1177,0.1407,0.1407,0.1618,0.162,0.1622]}],[{"header":{"parameterUnit":"m.s-1","parameterCategory":2,"la1":30.2991,"la2":30.254,"lo1":-89.0895,"lo2":-89.0444,"dy":0.0017,"dx":0.0017,"nx":28,"ny":28,"refTime":"2023-09-25T21:00:00:Z","depth":"2","parameterNumber":2,"parameterNumberName":"U-component_of_CURRENTS"},"data":[0,0,0,0,0,0,0,0,0,0,0,0,0,0,0,0,0,0,0,0,0,0,0,0,0,0,0,0,0,0,0,0,0,0,0,0,0,0,0,0,0,0,0,0,0,0,0,0,0,0,0,0,0,0,0,0,0,0,-0.193,-0.1929,0,-0.1997,-0.2,-0.2004,-0.2249,-0.2252,-0.2254,-0.2257,-0.2101,-0.2094,-0.2088,0,0,0,0,0,0,0,0,0,0,0,0,0,-0.1949,-0.1951,-0.1931,-0.1929,-0.1927,-0.1996,-0.2,-0.2004,-0.2248,-0.2252,-0.2255,-0.2258,-0.2103,-0.2095,-0.2087,0,0,0,0,0,0,0,0,0,0,0,0,0,-0.2001,-0.1951,-0.1931,-0.2034,-0.2042,-0.1996,-0.2001,-0.2005,-0.2248,-0.2252,-0.2256,-0.226,-0.2106,-0.2096,-0.2086,-0.1942,0,0,-0.2055,-0.2051,0,0,0,0,0,0,0,0,-0.1998,-0.2004,-0.2021,-0.2026,-0.2034,-0.2091,-0.1948,-0.1962,-0.2247,-0.2202,-0.2257,-0.2262,-0.2053,-0.2048,-0.2099,-0.1935,-0.1928,-0.2055,-0.2048,-0.2044,-0.2041,0,0,0,0,0,0,0,-0.1994,-0.2001,-0.1989,-0.2017,-0.2026,-0.2051,-0.2068,-0.1955,-0.2124,-0.2207,-0.2217,-0.2173,-0.2061,-0.2109,-0.2096,-0.1926,-0.2055,-0.2046,-0.204,-0.2036,-0.1779,-0.1778,0,0,0,0,0,0,-0.1922,-0.1998,-0.1986,-0.1988,-0.199,-0.2046,-0.2065,-0.2095,-0.2131,-0.2133,-0.2169,-0.2183,-0.2124,-0.2108,-0.2091,-0.2008,-0.2044,-0.2035,-0.2029,-0.178,-0.1779,-0.1778,0,0,0,0,0,0,-0.1923,-0.1923,-0.1983,-0.1965,-0.1971,-0.2038,-0.2071,-0.2093,-0.2154,-0.2099,-0.2105,-0.2205,-0.2127,-0.2105,-0.2013,-0.2,-0.203,-0.2021,-0.1781,-0.1779,-0.1778,-0.1784,0,0,0,0,0,0,-0.1925,-0.1926,-0.1943,-0.1962,-0.1968,-0.1956,-0.2064,-0.209,-0.2104,-0.2126,-0.2127,-0.212,-0.2128,-0.2029,-0.2004,-0.1987,-0.2013,-0.1782,-0.178,-0.1779,-0.1785,-0.1783,-0.1782,0,0,0,0,0,-0.1927,-0.1936,-0.1946,-0.1942,-0.1986,-0.195,-0.1961,-0.2041,-0.2101,-0.2119,-0.2127,-0.2121,-0.2004,-0.2018,-0.1989,-0.1969,-0.1782,-0.1781,-0.1779,-0.1785,-0.1783,-0.1782,0,0,0,0,0,0,-0.1963,-0.1958,-0.1971,-0.1983,-0.1952,-0.1981,-0.1988,-0.202,-0.2053,-0.207,-0.2071,-0.206,-0.1977,-0.1957,-0.1973,-0.1897,-0.1904,-0.1896,-0.1919,-0.1916,-0.1914,-0.2011,-0.2005,0,0,0,0,0,-0.1958,-0.1965,-0.1941,-0.1937,-0.1926,-0.195,-0.1949,-0.1981,-0.1982,-0.2012,-0.2032,-0.2016,-0.1941,-0.1919,-0.1864,-0.1784,-0.1834,-0.1767,-0.1765,-0.1764,-0.1825,-0.1887,-0.1899,-0.1772,-0.1772,-0.1772,0,0,-0.1952,-0.1948,-0.1949,-0.1939,-0.1943,-0.1939,-0.1974,-0.195,-0.1975,-0.1961,-0.2035,-0.1977,-0.191,-0.1863,-0.1827,-0.185,-0.1815,-0.1762,-0.1761,-0.1824,-0.1887,-0.19,-0.1912,-0.1771,-0.1771,-0.1771,0,0,-0.1924,-0.1954,-0.1948,-0.1936,-0.189,-0.1906,-0.1885,-0.1918,-0.1976,-0.1947,-0.1965,-0.1919,-0.1843,-0.1842,-0.1802,-0.174,-0.1782,-0.1711,-0.18,-0.1857,-0.187,-0.1882,-0.1925,-0.1942,-0.1739,-0.1739,-0.1739,0,-0.1929,-0.193,-0.1928,-0.192,-0.191,-0.1891,-0.1885,-0.1915,-0.193,-0.1969,-0.1967,-0.1929,-0.1847,-0.1805,-0.1812,-0.1738,-0.1793,-0.1806,-0.1861,-0.1874,-0.1887,-0.1929,-0.1947,-0.1739,-0.1739,-0.1739,-0.1739,0,-0.1882,-0.1906,-0.1893,-0.1904,-0.1896,-0.1868,-0.1875,-0.1921,-0.1954,-0.1992,-0.1981,-0.1912,-0.1911,-0.1856,-0.1804,-0.1842,-0.1856,-0.1829,-0.1878,-0.1901,-0.1941,-0.196,-0.1739,-0.1739,-0.1739,-0.1739,0,0,-0.1861,-0.1868,-0.1872,-0.1895,-0.189,-0.1881,-0.1919,-0.1953,-0.2009,-0.2028,-0.2106,-0.1991,-0.2002,-0.1963,-0.19,-0.1961,-0.2034,-0.1958,-0.1961,-0.2025,-0.2188,-0.1905,-0.1899,-0.2041,-0.2045,-0.2048,-0.2169,0,-0.1836,-0.1835,-0.1847,-0.1868,-0.1878,-0.1911,-0.1955,-0.1989,-0.2027,-0.2111,-0.2077,-0.2086,-0.2021,-0.2007,-0.205,-0.2018,-0.2093,-0.2006,-0.214,-0.2144,-0.1909,-0.1913,-0.1771,-0.1842,-0.2187,-0.2191,-0.2193,0,-0.1797,-0.181,-0.1818,-0.1892,-0.1902,-0.192,-0.2012,-0.2037,-0.2125,-0.217,-0.2212,-0.2205,-0.2233,-0.2185,-0.2247,-0.2208,-0.2226,-0.2234,-0.2237,-0.2005,-0.1896,-0.188,-0.1863,-0.2224,-0.2222,-0.222,-0.2217,0,-0.1774,-0.1811,-0.1824,-0.1838,-0.1896,-0.1942,-0.1981,-0.2064,-0.2102,-0.2223,-0.2261,-0.2323,-0.2304,-0.2388,-0.2313,-0.2337,-0.2389,-0.2406,-0.2194,-0.2175,-0.2095,-0.2058,-0.2528,-0.2528,-0.2527,-0.2527,-0.2527,0,-0.1756,-0.178,-0.1821,-0.1831,-0.1869,-0.1928,-0.1985,-0.2058,-0.2145,-0.2169,-0.2273,-0.2268,-0.2367,-0.236,-0.238,-0.2274,-0.2428,-0.2231,-0.2191,-0.2077,-0.2039,-0.241,-0.2395,-0.2531,-0.253,-0.253,-0.2529,0,-0.1722,-0.1748,-0.1766,-0.1829,-0.185,-0.1872,-0.1955,-0.1999,-0.2101,-0.2135,-0.2178,-0.2251,-0.2227,-0.2258,-0.2328,-0.2271,-0.2263,-0.2199,-0.2025,-0.1957,-0.2037,-0.202,-0.2079,-0.2071,-0.2063,-0.2057,-0.2051,0,-0.1697,-0.1696,-0.173,-0.1732,-0.1757,-0.1806,-0.1833,-0.1954,-0.1985,-0.2066,-0.2059,-0.2079,-0.2004,-0.1957,-0.1911,-0.1904,-0.2027,-0.1765,-0.1761,-0.2038,-0.1995,-0.199,-0.1984,-0.1685,-0.1678,-0.1671,-0.1666,0,-0.1637,-0.1641,-0.1654,-0.1643,-0.1666,-0.1689,-0.1738,-0.1758,-0.1862,-0.1885,-0.1848,-0.1809,-0.1718,-0.1573,-0.1502,-0.1497,-0.1753,-0.1623,-0.2011,-0.1743,-0.1654,-0.1613,-0.1625,-0.1609,-0.1615,-0.1619,-0.1622,-0.1624,-0.1573,-0.1555,-0.1552,-0.1536,-0.1557,-0.1545,-0.1519,-0.1574,-0.1572,-0.1548,-0.1576,-0.1451,-0.1435,-0.1204,-0.1146,-0.114,-0.1292,-0.1321,-0.1349,-0.1383,-0.1237,-0.1131,-0.0964,-0.0966,-0.0968,-0.097,-0.0971,0,-0.1457,-0.1448,-0.1442,-0.1413,-0.1376,-0.1425,-0.1422,-0.1359,-0.1286,-0.1278,-0.1207,-0.1016,-0.0896,-0.09,-0.0785,-0.0764,-0.0877,-0.0759,-0.0936,-0.0989,-0.1037,-0.0883,-0.0513,-0.0512,-0.0511,-0.051,0,0,-0.1395,-0.1333,-0.1324,-0.1217,-0.1203,-0.1098,-0.1055,-0.0984,-0.0941,-0.0815,-0.0748,-0.0789,-0.0809,-0.0636,-0.0613,-0.0533,-0.0767,-0.0512,-0.0873,-0.1128,-0.1175,-0.134,-0.1153,0,0,0,0,0]},{"header":{"parameterUnit":"m.s-1","parameterCategory":2,"la1":30.2991,"la2":30.254,"lo1":-89.0895,"lo2":-89.0444,"dy":0.0017,"dx":0.0017,"nx":28,"ny":28,"refTime":"2023-09-25T21:00:00:Z","depth":"2","parameterNumber":3,"parameterNumberName":"V-component_of_CURRENTS"},"data":[0,0,0,0,0,0,0,0,0,0,0,0,0,0,0,0,0,0,0,0,0,0,0,0,0,0,0,0,0,0,0,0,0,0,0,0,0,0,0,0,0,0,0,0,0,0,0,0,0,0,0,0,0,0,0,0,0,0,-0.0219,-0.0218,0,-0.0006,-0.0003,-0.0,0.0116,0.0116,0.0115,0.0115,0.0258,0.0262,0.0266,0,0,0,0,0,0,0,0,0,0,0,0,0,-0.0344,-0.0342,-0.0219,-0.0217,-0.0216,-0.0007,-0.0003,0.0001,0.0117,0.0116,0.0115,0.0115,0.0256,0.0261,0.0267,0,0,0,0,0,0,0,0,0,0,0,0,0,-0.0218,-0.0342,-0.022,-0.0139,-0.013,-0.0008,-0.0003,0.0002,0.0117,0.0116,0.0115,0.0114,0.0255,0.0261,0.0267,0.0323,0,0,0.0287,0.029,0,0,0,0,0,0,0,0,-0.0226,-0.0213,-0.0153,-0.0145,-0.0135,0.002,0.0005,0.0102,0.0117,0.0032,0.0115,0.0114,0.0166,0.018,0.0236,0.0329,0.0335,0.0288,0.0291,0.0294,0.0296,0,0,0,0,0,0,0,-0.0235,-0.022,-0.0126,-0.0151,-0.014,-0.0052,-0.0036,0.0026,0.0107,0.004,0.0046,0.0056,0.0172,0.0229,0.0239,0.0337,0.0287,0.0293,0.0297,0.03,0.0458,0.0459,0,0,0,0,0,0,-0.0287,-0.0229,-0.0133,-0.012,-0.0193,-0.0051,-0.0032,-0.0022,0.0108,0.0125,0.0056,0.0061,0.0219,0.0232,0.0245,0.0267,0.0294,0.03,0.0304,0.0458,0.0459,0.0459,0,0,0,0,0,0,-0.0291,-0.0281,-0.0142,-0.0177,-0.0154,-0.005,-0.0038,-0.0017,0.0028,0.012,0.0137,0.0077,0.0219,0.0236,0.0298,0.0274,0.0303,0.0309,0.0458,0.0458,0.0459,0.0342,0,0,0,0,0,0,-0.0295,-0.0283,-0.0287,-0.0181,-0.0155,-0.0087,-0.0037,-0.0013,0.0032,0.0039,0.0144,0.0157,0.0219,0.0288,0.0304,0.0283,0.0314,0.0457,0.0458,0.0459,0.0345,0.0338,0.0332,0,0,0,0,0,-0.03,-0.0296,-0.0289,-0.0277,-0.0166,-0.0089,-0.0066,0.0013,0.0033,0.0052,0.0127,0.0154,0.0303,0.0294,0.0313,0.0293,0.0457,0.0458,0.0458,0.0348,0.034,0.0332,0,0,0,0,0,0,-0.0344,-0.0282,-0.0271,-0.0249,-0.0191,-0.0073,-0.0042,0.0001,0.0082,0.0087,0.0169,0.019,0.0223,0.0288,0.0275,0.0344,0.038,0.0385,0.0289,0.0282,0.0276,0.0276,0.0319,0,0,0,0,0,-0.0364,-0.0349,-0.0281,-0.0264,-0.0241,-0.0149,-0.0108,-0.006,0.002,0.0057,0.013,0.0202,0.0248,0.0286,0.0342,0.0395,0.0446,0.0394,0.0388,0.0382,0.0397,0.0469,0.047,0.0462,0.0462,0.0462,0,0,-0.0381,-0.0343,-0.0337,-0.0274,-0.0216,-0.018,-0.0123,-0.0068,-0.0041,0.0056,0.0123,0.0174,0.0253,0.0301,0.0323,0.0351,0.0402,0.0383,0.0376,0.0396,0.047,0.047,0.0471,0.0462,0.0462,0.0462,0,0,-0.0391,-0.0372,-0.036,-0.0321,-0.0258,-0.0203,-0.0203,-0.0101,-0.006,0.0001,0.0063,0.0112,0.0207,0.0265,0.0299,0.0299,0.0352,0.0305,0.0289,0.0357,0.0358,0.036,0.0379,0.0384,0.0318,0.0318,0.0317,0,-0.0416,-0.0394,-0.0343,-0.0318,-0.0296,-0.0229,-0.0212,-0.0155,-0.0047,-0.0019,-0.0001,0.0136,0.0189,0.0248,0.0249,0.0279,0.0321,0.0302,0.0346,0.0349,0.0353,0.0374,0.038,0.0312,0.0313,0.0313,0.0314,0,-0.0406,-0.0401,-0.0388,-0.0349,-0.0314,-0.0289,-0.0229,-0.0192,-0.0152,-0.009,-0.0032,0.0061,0.0144,0.0155,0.0203,0.0254,0.027,0.031,0.0356,0.0346,0.0369,0.0377,0.0304,0.0306,0.0308,0.0309,0,0,-0.0442,-0.0396,-0.0395,-0.0398,-0.0336,-0.0308,-0.028,-0.0229,-0.0213,-0.0124,-0.0084,-0.0002,0.0054,0.0101,0.0164,0.0235,0.0267,0.0286,0.0292,0.0287,0.039,0.0377,0.0386,0.0319,0.0321,0.0323,0.0376,0,-0.0458,-0.0442,-0.0406,-0.0406,-0.0402,-0.0353,-0.0333,-0.0281,-0.0231,-0.0174,-0.0087,-0.003,0.003,0.006,0.0139,0.0243,0.0294,0.0247,0.0418,0.0422,0.0399,0.0398,0.0374,0.042,0.0386,0.0387,0.0388,0,-0.046,-0.0458,-0.046,-0.0457,-0.0449,-0.0438,-0.041,-0.038,-0.0297,-0.0257,-0.0175,-0.0098,0.0008,0.0054,0.0232,0.0202,0.0285,0.0364,0.0369,0.0415,0.0429,0.0438,0.0438,0.0404,0.0403,0.0401,0.04,0,-0.051,-0.0499,-0.0512,-0.0506,-0.0481,-0.0484,-0.0469,-0.0406,-0.0384,-0.0304,-0.0276,-0.0139,-0.0074,0.0072,0.0226,0.0236,0.0415,0.0445,0.0504,0.0502,0.0547,0.0546,0.056,0.056,0.0559,0.0559,0.0559,0,-0.0542,-0.0557,-0.0544,-0.0555,-0.058,-0.054,-0.0546,-0.0515,-0.0456,-0.0418,-0.0319,-0.0255,-0.0059,0.0067,0.021,0.0379,0.0398,0.0504,0.0529,0.05,0.0494,0.0549,0.0547,0.0561,0.0561,0.056,0.056,0,-0.0587,-0.0576,-0.06,-0.06,-0.0603,-0.062,-0.0607,-0.06,-0.0551,-0.0498,-0.0476,-0.0334,-0.0166,0.0008,0.0235,0.0341,0.0507,0.0553,0.0477,0.0493,0.0547,0.0539,0.0632,0.0632,0.0632,0.0633,0.0633,0,-0.0605,-0.0619,-0.064,-0.0662,-0.0666,-0.0684,-0.0688,-0.065,-0.0627,-0.0529,-0.0496,-0.0354,-0.0211,0.0075,0.0277,0.049,0.0513,0.0565,0.059,0.0546,0.0561,0.0552,0.0544,0.0583,0.0583,0.0583,0.0582,0,-0.0648,-0.0651,-0.0676,-0.0719,-0.0741,-0.0757,-0.0754,-0.0748,-0.0678,-0.0612,-0.0486,-0.0373,-0.0127,0.0116,0.0341,0.0464,0.0533,0.0567,0.0574,0.0562,0.0504,0.0517,0.051,0.0581,0.0581,0.0581,0.0581,0.0581,-0.0678,-0.0709,-0.0737,-0.0775,-0.0801,-0.0811,-0.0808,-0.0765,-0.0705,-0.0575,-0.0467,-0.0274,-0.0085,0.0258,0.0413,0.0531,0.0554,0.0604,0.0603,0.0604,0.0582,0.0528,0.0602,0.0602,0.0602,0.0602,0.0603,0,-0.0707,-0.0739,-0.0786,-0.0828,-0.0852,-0.0851,-0.0829,-0.078,-0.0676,-0.0558,-0.0394,-0.0146,0.0087,0.0257,0.0457,0.0587,0.0576,0.0589,0.057,0.0571,0.0573,0.0549,0.056,0.056,0.056,0.0561,0,0,-0.0727,-0.0775,-0.0798,-0.0852,-0.0873,-0.0868,-0.0841,-0.0735,-0.0635,-0.046,-0.0319,-0.0132,0.0083,0.0226,0.0382,0.0473,0.0475,0.0463,0.0485,0.0444,0.0443,0.0573,0.0536,0,0,0,0,0]}],[{"header":{"parameterUnit":"m.s-1","parameterCategory":2,"la1":30.2991,"la2":30.254,"lo1":-89.0895,"lo2":-89.0444,"dy":0.0017,"dx":0.0017,"nx":28,"ny":28,"refTime":"2023-09-25T21:00:00:Z","depth":"4","parameterNumber":2,"parameterNumberName":"U-component_of_CURRENTS"},"data":[0,0,0,0,0,0,0,0,0,0,0,0,0,0,0,0,0,0,0,0,0,0,0,0,0,0,0,0,0,0,0,0,0,0,0,0,0,0,0,0,0,0,0,0,0,0,0,0,0,0,0,0,0,0,0,0,0,0,-0.0842,-0.0841,0,-0.0785,-0.0784,-0.0784,-0.0758,-0.0758,-0.0758,-0.0759,-0.0803,-0.0804,-0.0805,0,0,0,0,0,0,0,0,0,0,0,0,0,-0.0923,-0.0922,-0.0842,-0.0841,-0.084,-0.0785,-0.0784,-0.0783,-0.0758,-0.0758,-0.0758,-0.0759,-0.0803,-0.0804,-0.0805,0,0,0,0,0,0,0,0,0,0,0,0,0,-0.0878,-0.0922,-0.0842,-0.0822,-0.082,-0.0785,-0.0784,-0.0783,-0.0758,-0.0758,-0.0759,-0.0759,-0.0802,-0.0804,-0.0805,-0.081,0,0,-0.081,-0.0811,0,0,0,0,0,0,0,0,-0.0881,-0.0875,-0.0825,-0.0823,-0.0821,-0.078,-0.0829,-0.0797,-0.0758,-0.078,-0.0759,-0.0759,-0.0805,-0.0806,-0.0792,-0.0812,-0.0814,-0.081,-0.0811,-0.0812,-0.0812,0,0,0,0,0,0,0,-0.0884,-0.0878,-0.0818,-0.0825,-0.0822,-0.0815,-0.0808,-0.0823,-0.0793,-0.0778,-0.0777,-0.0772,-0.0804,-0.0791,-0.0793,-0.0814,-0.081,-0.0811,-0.0812,-0.0813,-0.0858,-0.0859,0,0,0,0,0,0,-0.0893,-0.088,-0.082,-0.0816,-0.0853,-0.0813,-0.0806,-0.0792,-0.0791,-0.079,-0.0772,-0.0771,-0.0788,-0.0792,-0.0795,-0.0857,-0.0812,-0.0813,-0.0814,-0.0858,-0.0858,-0.0859,0,0,0,0,0,0,-0.0895,-0.0888,-0.0822,-0.0849,-0.084,-0.0812,-0.0796,-0.0791,-0.0795,-0.0785,-0.0786,-0.0784,-0.0788,-0.0793,-0.0809,-0.0857,-0.0814,-0.0815,-0.0858,-0.0858,-0.0859,-0.0945,0,0,0,0,0,0,-0.0897,-0.0889,-0.0896,-0.0849,-0.0839,-0.0814,-0.0795,-0.0789,-0.0791,-0.079,-0.0795,-0.0798,-0.0789,-0.0806,-0.081,-0.0858,-0.0816,-0.0857,-0.0858,-0.0858,-0.0942,-0.0949,-0.0954,0,0,0,0,0,-0.09,-0.0893,-0.0896,-0.089,-0.0844,-0.0815,-0.0809,-0.0789,-0.0792,-0.0794,-0.079,-0.0799,-0.0813,-0.0807,-0.0812,-0.0862,-0.0857,-0.0858,-0.0858,-0.0939,-0.0947,-0.0954,0,0,0,0,0,0,-0.0922,-0.0889,-0.0891,-0.0873,-0.0858,-0.0811,-0.0813,-0.0804,-0.08,-0.0809,-0.0801,-0.0803,-0.0836,-0.0826,-0.082,-0.087,-0.0838,-0.0839,-0.0898,-0.0905,-0.0911,-0.0908,-0.0818,0,0,0,0,0,-0.0935,-0.0924,-0.0896,-0.0884,-0.0884,-0.0858,-0.0851,-0.0838,-0.0822,-0.0821,-0.082,-0.0824,-0.0838,-0.0853,-0.0853,-0.0886,-0.0871,-0.0917,-0.0923,-0.0929,-0.0926,-0.0933,-0.094,-0.0861,-0.0861,-0.0861,0,0,-0.0937,-0.092,-0.0913,-0.089,-0.0879,-0.0892,-0.0854,-0.0847,-0.0866,-0.083,-0.0859,-0.0848,-0.0847,-0.0876,-0.0892,-0.088,-0.0944,-0.093,-0.0935,-0.0928,-0.0934,-0.0942,-0.0949,-0.0861,-0.0861,-0.0861,0,0,-0.0944,-0.0929,-0.0937,-0.0934,-0.0929,-0.0918,-0.0926,-0.09,-0.0901,-0.0916,-0.09,-0.0909,-0.0926,-0.093,-0.0939,-0.0979,-0.0972,-0.0987,-0.1029,-0.1037,-0.1044,-0.105,-0.1052,-0.1057,-0.0996,-0.0996,-0.0996,0,-0.0957,-0.096,-0.0935,-0.0954,-0.0961,-0.0942,-0.0967,-0.0967,-0.0949,-0.0953,-0.094,-0.0952,-0.0955,-0.0997,-0.1003,-0.1,-0.0991,-0.101,-0.1047,-0.1053,-0.1057,-0.1058,-0.1063,-0.1,-0.1,-0.0999,-0.0999,0,-0.0971,-0.0994,-0.0997,-0.1024,-0.1031,-0.1038,-0.1044,-0.1056,-0.1058,-0.1048,-0.1071,-0.1053,-0.1056,-0.1069,-0.1051,-0.1092,-0.1072,-0.1054,-0.1036,-0.1071,-0.1069,-0.1072,-0.1006,-0.1005,-0.1004,-0.1003,0,0,-0.0952,-0.1001,-0.1009,-0.104,-0.1068,-0.1065,-0.1118,-0.1138,-0.1162,-0.1155,-0.1175,-0.1191,-0.1161,-0.1164,-0.1148,-0.1154,-0.1186,-0.1119,-0.1118,-0.1134,-0.1198,-0.1117,-0.1112,-0.1176,-0.1177,-0.1178,-0.1188,0,-0.098,-0.1034,-0.1051,-0.1111,-0.1142,-0.1155,-0.1198,-0.1216,-0.1224,-0.1234,-0.1226,-0.1238,-0.1208,-0.121,-0.1212,-0.1186,-0.1196,-0.1184,-0.1149,-0.1148,-0.1082,-0.1114,-0.118,-0.1191,-0.1191,-0.1192,-0.1192,0,-0.0996,-0.1034,-0.1102,-0.1159,-0.1172,-0.1207,-0.1256,-0.1288,-0.1312,-0.1316,-0.1324,-0.1304,-0.1317,-0.1277,-0.1271,-0.1263,-0.1236,-0.1214,-0.1214,-0.1106,-0.1073,-0.1142,-0.1198,-0.1198,-0.1197,-0.1197,-0.1197,0,-0.0991,-0.1063,-0.1119,-0.1139,-0.1207,-0.1239,-0.1269,-0.1309,-0.1329,-0.1364,-0.137,-0.1378,-0.1377,-0.1354,-0.1309,-0.1293,-0.1286,-0.1263,-0.117,-0.1164,-0.1198,-0.1191,-0.1261,-0.1261,-0.1261,-0.1261,-0.1261,0,-0.1001,-0.1045,-0.1121,-0.115,-0.12,-0.1245,-0.1291,-0.1325,-0.1364,-0.1375,-0.1401,-0.1399,-0.1393,-0.1379,-0.1334,-0.1261,-0.1314,-0.1178,-0.1162,-0.1234,-0.1231,-0.1201,-0.1194,-0.1261,-0.1261,-0.1261,-0.1261,0,-0.0987,-0.1042,-0.1105,-0.1184,-0.1204,-0.1236,-0.1291,-0.1314,-0.1369,-0.1386,-0.1399,-0.1423,-0.1401,-0.1387,-0.1352,-0.1289,-0.1236,-0.1199,-0.1287,-0.1275,-0.1103,-0.11,-0.1093,-0.109,-0.1088,-0.1086,-0.1084,0,-0.0977,-0.1022,-0.1114,-0.1138,-0.1175,-0.1224,-0.125,-0.1308,-0.1328,-0.1377,-0.1373,-0.1384,-0.138,-0.127,-0.127,-0.1207,-0.1178,-0.1163,-0.1118,-0.11,-0.1086,-0.1087,-0.1087,-0.108,-0.108,-0.1079,-0.1079,0,-0.0974,-0.1023,-0.1072,-0.1117,-0.1152,-0.1179,-0.122,-0.1224,-0.1281,-0.1341,-0.1299,-0.1265,-0.1239,-0.1197,-0.1171,-0.1118,-0.1179,-0.1137,-0.1141,-0.1099,-0.1085,-0.1073,-0.1076,-0.107,-0.1072,-0.1072,-0.1073,0,-0.0968,-0.099,-0.1055,-0.1069,-0.1116,-0.1113,-0.1142,-0.1145,-0.1163,-0.1217,-0.1196,-0.1194,-0.1223,-0.1151,-0.1118,-0.1073,-0.1035,-0.0992,-0.1002,-0.1012,-0.0976,-0.0946,-0.0877,0,0,0,0,0,-0.095,-0.0958,-0.099,-0.1003,-0.1041,-0.1046,-0.111,-0.114,-0.1192,-0.1131,-0.1157,-0.1117,-0.1052,-0.1057,-0.0984,-0.1078,-0.105,-0.0991,-0.101,-0.1025,-0.1034,-0.0998,0,0,0,0,0,0,-0.0941,-0.0981,-0.0971,-0.0934,-0.0914,-0.0935,-0.0964,-0.1001,-0.0975,-0.1033,-0.1002,-0.1039,-0.0996,-0.1057,-0.0952,-0.0953,-0.0942,-0.0997,-0.0994,-0.1019,-0.1028,-0.1036,-0.1002,0,0,0,0,0]},{"header":{"parameterUnit":"m.s-1","parameterCategory":2,"la1":30.2991,"la2":30.254,"lo1":-89.0895,"lo2":-89.0444,"dy":0.0017,"dx":0.0017,"nx":28,"ny":28,"refTime":"2023-09-25T21:00:00:Z","depth":"4","parameterNumber":3,"parameterNumberName":"V-component_of_CURRENTS"},"data":[0,0,0,0,0,0,0,0,0,0,0,0,0,0,0,0,0,0,0,0,0,0,0,0,0,0,0,0,0,0,0,0,0,0,0,0,0,0,0,0,0,0,0,0,0,0,0,0,0,0,0,0,0,0,0,0,0,0,-0.0226,-0.0226,0,-0.0201,-0.0201,-0.02,-0.018,-0.018,-0.018,-0.018,-0.0125,-0.0124,-0.0123,0,0,0,0,0,0,0,0,0,0,0,0,0,-0.0232,-0.0232,-0.0226,-0.0226,-0.0226,-0.0201,-0.0201,-0.02,-0.018,-0.018,-0.018,-0.018,-0.0126,-0.0124,-0.0122,0,0,0,0,0,0,0,0,0,0,0,0,0,-0.0219,-0.0232,-0.0226,-0.0213,-0.0212,-0.0201,-0.0201,-0.02,-0.018,-0.018,-0.018,-0.018,-0.0126,-0.0124,-0.0122,-0.0114,0,0,-0.0116,-0.0115,0,0,0,0,0,0,0,0,-0.022,-0.0219,-0.0216,-0.0214,-0.0213,-0.0194,-0.0182,-0.017,-0.018,-0.0192,-0.018,-0.0179,-0.0146,-0.0142,-0.0138,-0.0111,-0.0109,-0.0116,-0.0115,-0.0114,-0.0113,0,0,0,0,0,0,0,-0.0221,-0.022,-0.0216,-0.0215,-0.0214,-0.02,-0.0198,-0.018,-0.0169,-0.0191,-0.0189,-0.0187,-0.0145,-0.014,-0.0136,-0.0108,-0.0116,-0.0114,-0.0113,-0.0112,-0.0067,-0.0067,0,0,0,0,0,0,-0.0227,-0.0221,-0.0216,-0.0215,-0.0217,-0.02,-0.0198,-0.02,-0.017,-0.0166,-0.0188,-0.0187,-0.0143,-0.0138,-0.0134,-0.01,-0.0114,-0.0112,-0.0111,-0.0067,-0.0067,-0.0067,0,0,0,0,0,0,-0.0228,-0.0227,-0.0217,-0.0218,-0.0216,-0.0201,-0.0202,-0.0199,-0.0195,-0.0168,-0.0163,-0.0187,-0.0143,-0.0137,-0.0122,-0.0098,-0.0111,-0.0109,-0.0067,-0.0067,-0.0067,-0.0046,0,0,0,0,0,0,-0.0228,-0.0228,-0.0237,-0.0218,-0.0216,-0.021,-0.0202,-0.0199,-0.0195,-0.0193,-0.0166,-0.016,-0.0142,-0.0126,-0.012,-0.0096,-0.0108,-0.0067,-0.0067,-0.0067,-0.0046,-0.0045,-0.0044,0,0,0,0,0,-0.0228,-0.0236,-0.0238,-0.0238,-0.0228,-0.021,-0.0208,-0.0196,-0.0195,-0.0192,-0.0178,-0.0161,-0.0122,-0.0124,-0.0118,-0.0092,-0.0067,-0.0067,-0.0067,-0.0047,-0.0045,-0.0044,0,0,0,0,0,0,-0.0245,-0.0235,-0.0236,-0.0242,-0.0229,-0.0207,-0.0206,-0.0199,-0.0187,-0.0186,-0.0164,-0.0157,-0.013,-0.0125,-0.0129,-0.0082,-0.0091,-0.0089,-0.0077,-0.0075,-0.0074,-0.009,-0.0106,0,0,0,0,0,-0.0254,-0.0259,-0.0243,-0.025,-0.0242,-0.0227,-0.0222,-0.0212,-0.0196,-0.019,-0.0171,-0.0152,-0.0126,-0.0114,-0.0093,-0.0073,-0.0058,-0.0054,-0.0053,-0.0051,-0.0062,-0.002,-0.0015,-0.0067,-0.0067,-0.0067,0,0,-0.0266,-0.026,-0.0265,-0.0254,-0.0243,-0.023,-0.0223,-0.0212,-0.0198,-0.0186,-0.0164,-0.0144,-0.0121,-0.0091,-0.0079,-0.0084,-0.0027,-0.0051,-0.005,-0.0062,-0.0019,-0.0014,-0.0009,-0.0067,-0.0067,-0.0067,0,0,-0.0276,-0.0281,-0.0281,-0.0269,-0.0253,-0.0239,-0.0237,-0.0214,-0.02,-0.0182,-0.0162,-0.0136,-0.0107,-0.0077,-0.0061,-0.0045,-0.0019,-0.0037,-0.004,0.0002,0.0007,0.0012,0.0049,0.0057,-0.0037,-0.0037,-0.0037,0,-0.0291,-0.0292,-0.0279,-0.0268,-0.0263,-0.0243,-0.0237,-0.0214,-0.019,-0.018,-0.0175,-0.0124,-0.0097,-0.0056,-0.0048,-0.0037,-0.0018,-0.0042,0.0006,0.0011,0.0015,0.0052,0.006,-0.0036,-0.0036,-0.0036,-0.0036,0,-0.0289,-0.0296,-0.0292,-0.0275,-0.0263,-0.0258,-0.0225,-0.0212,-0.0196,-0.0175,-0.0139,-0.0104,-0.0078,-0.0054,-0.0044,0.0001,0.0004,0.0008,0.0006,0.0022,0.0059,0.0067,-0.0035,-0.0035,-0.0035,-0.0035,0,0,-0.0314,-0.0298,-0.0299,-0.0301,-0.0272,-0.0264,-0.0236,-0.0211,-0.0204,-0.0163,-0.0146,-0.0087,-0.0073,-0.0056,-0.0028,0.0007,0.0069,0.0015,0.0017,0.0058,0.0158,0.0141,0.0148,0.0083,0.0084,0.0085,0.0177,0,-0.0323,-0.0319,-0.0302,-0.0303,-0.0302,-0.0277,-0.0258,-0.023,-0.0203,-0.0179,-0.0126,-0.0099,-0.0069,-0.006,-0.0012,0.0042,0.0088,0.0043,0.0129,0.0132,0.012,0.0156,0.0089,0.0183,0.0185,0.0186,0.0187,0,-0.0325,-0.0329,-0.0333,-0.0333,-0.033,-0.0324,-0.0308,-0.0286,-0.0237,-0.0217,-0.0174,-0.0136,-0.007,-0.0055,0.0062,0.003,0.0092,0.0138,0.0143,0.0119,0.0129,0.016,0.0202,0.0201,0.02,0.0199,0.0198,0,-0.0354,-0.0352,-0.0364,-0.0362,-0.035,-0.0352,-0.0344,-0.0306,-0.0292,-0.0246,-0.0231,-0.0151,-0.0106,-0.0023,0.0081,0.0072,0.0204,0.0208,0.0255,0.0255,0.0233,0.0227,0.0292,0.0292,0.0292,0.0291,0.0291,0,-0.0371,-0.0383,-0.0386,-0.0395,-0.0417,-0.0391,-0.0399,-0.038,-0.0345,-0.0322,-0.0257,-0.0215,-0.0096,-0.0004,0.0079,0.0194,0.0213,0.0258,0.0279,0.0241,0.0235,0.024,0.0233,0.0295,0.0294,0.0293,0.0293,0,-0.0393,-0.0394,-0.0417,-0.0426,-0.0433,-0.0448,-0.0443,-0.0441,-0.0407,-0.0373,-0.0359,-0.0248,-0.0129,-0.0012,0.0135,0.0196,0.0298,0.0335,0.0286,0.0302,0.0321,0.0314,0.0394,0.0394,0.0394,0.0394,0.0395,0,-0.0398,-0.0415,-0.0449,-0.0473,-0.0482,-0.05,-0.0507,-0.048,-0.0465,-0.0385,-0.0363,-0.0246,-0.0162,0.0042,0.0152,0.0307,0.0326,0.0375,0.0346,0.032,0.0333,0.0325,0.0318,0.0395,0.0395,0.0395,0.0395,0,-0.0423,-0.0442,-0.0466,-0.0517,-0.0542,-0.0558,-0.056,-0.0553,-0.05,-0.0465,-0.0347,-0.0236,-0.0096,0.0052,0.0173,0.0281,0.0336,0.0377,0.0378,0.035,0.0322,0.0333,0.0325,0.0395,0.0395,0.0395,0.0395,0,-0.0446,-0.0476,-0.0518,-0.0555,-0.0591,-0.0605,-0.0601,-0.0555,-0.0527,-0.0423,-0.0378,-0.0226,-0.012,0.004,0.0151,0.0251,0.0271,0.0295,0.03,0.0301,0.0235,0.0183,0.0238,0,0,0,0,0,-0.0467,-0.0505,-0.055,-0.0596,-0.0627,-0.064,-0.0628,-0.0608,-0.0548,-0.0465,-0.0417,-0.0283,-0.0093,-0.0004,0.0095,0.0123,0.0261,0.0238,0.0283,0.0399,0.0398,0.0334,0,0,0,0,0,0,-0.0488,-0.0539,-0.0559,-0.0615,-0.0645,-0.0672,-0.0662,-0.0621,-0.0559,-0.048,-0.0371,-0.0278,-0.0095,-0.0153,0.0091,0.0123,0.016,0.0339,0.0341,0.0399,0.0398,0.0398,0.0332,0,0,0,0,0]}]]